Portada
METAR-TAF:

METAR-TAF

Aeroports :

Qeshm, Iran

latitud: 26-45-18N, longitud: 055-54-08E, altitud: 12 m

Observació

L'informe es va fer fa 12 minuts, a les 23:00 UTC
Vent 4 kt del Nord
Temperatura 16°C
Humitat 63%
Pressió 1015 hPa
Visibilitat 10 km o més
sense núvols per sota de 1500 mi sense presència de cumulonimbus.

METAR: OIKQ 132300Z 36004KT CAVOK 16/09 Q1015

Hora: 02:42 (23:12 UTC)


TAF: manca

Observacions i pronòstics meteorològics de més de 4000 aeroports (METAR i TAF).

Les estacions disponibles són els punts grocs i vermells al mapa.

Posi el ratolí al punt desitjat per veure el nom de l'estació.

Feu clic per veure les observacions i els pronòstics meteorològics.

Per canviar el mapa: feu clic els botons verds amb una creu de color negre per apropar; al botó verd amb un guió per allunyar la imatge; o en les fletxes verdes per a mapes adjacents.


METAR-TAF: